Weather in Batashyurt

Russia / Republic of Dagestan     43°18′36″N   46°30′28″E
temp.,
°C
wind,
m/s
gust,
m/s
humid.,
%
clouds,
%
prec.,
mm/h
press.,
hPa
HPBL,
m
16 april, fri
fri1600:00+12sw335463 0.0 101822
03:00+11sw225749 0.0 101912
06:00+11sw226340 0.0 102026
09:00+17nnw22485 0.0 1020642
12:00+20ne33390 0.0 10191374
15:00+21ene55379 0.0 10171723
18:00+16e59525 0.1 1018232
21:00+13ese23600 0.1 101840
17 april, sat
sat1700:00+12sse11650 0.0 101812
03:00+11se11685 0.0 101811
06:00+12se226752 0.0 101722
09:00+19nne225091 0.0 1016494
12:00+21wnw5547100 0.0 10171038
15:00+21wnw6644100 0.0 10171486
18:00+18w2360100 0.0 101995
21:00+16w5960100 0.0 1021597
18 april, sun
sun1800:00+14wnw5872100 0.0 1021559
03:00+12wnw3686100 0.0 1022278
06:00+11wsw118499 0.0 1022127
09:00+15ne2265100 0.0 1020624
12:00+18ene565017 0.0 10181036
15:00+19ene664538 0.3 10161008
18:00+15ene4759100 0.3 1016272
21:00+13wnw2285100 1.8 101858
19 april, mon
mon1900:00+13nw1185100 0.4 101816
03:00+12se1190100 0.4 101810
06:00+13ese1185100 0.0 101820
09:00+16e3369100 0.0 1017356
12:00+21ene5550100 0.0 1017789
15:00+22ene774497 0.0 1015837
18:00+16e695893 0.0 1015246
21:00+13e486485 0.0 1015152
20 april, tue
tue2000:00+13e4767100 0.0 1013161
03:00+12ese467090 0.0 1011114
06:00+14ese4668100 0.0 1009112
09:00+18e5860100 0.0 1008233
12:00+24e81144100 0.0 1004434
15:00+25e9134395 0.0 1002392
18:00+18e5960100 0.0 1002186
21:00+18w91760100 0.1 1009761